Time,TemperatureF,DewpointF,PressureIn,WindDirection,WindDirectionDegrees,WindSpeedMPH,WindSpeedGustMPH,Humidity,HourlyPrecipIn,Conditions,Clouds,dailyrainin,SoftwareType,DateUTC
2013-06-03 00:02:00,62.0,58.0,30.01,NNW,327,0.0,0.0,86,0.00,,,0.00,,2013-06-03 05:02:00,
2013-06-03 00:12:00,62.0,58.0,30.01,NNW,327,0.0,0.0,86,0.00,,,0.00,,2013-06-03 05:12:00,
2013-06-03 00:22:00,62.0,58.0,30.01,NNW,327,0.0,0.0,87,0.00,,,0.00,,2013-06-03 05:22:00,
2013-06-03 00:32:00,62.0,58.0,30.00,NNW,327,0.0,0.0,86,0.00,,,0.00,,2013-06-03 05:32:00,
2013-06-03 00:42:00,62.0,58.0,30.00,NNW,327,0.0,0.0,86,0.00,,,0.00,,2013-06-03 05:42:00,
2013-06-03 00:52:00,62.0,58.0,30.00,NNW,327,0.0,0.0,86,0.00,,,0.00,,2013-06-03 05:52:00,
2013-06-03 01:02:00,62.0,58.0,30.00,NNW,327,0.0,0.0,87,0.00,,,0.00,,2013-06-03 06:02:00,
2013-06-03 01:12:00,62.0,58.0,30.00,NNW,327,0.0,0.0,87,0.00,,,0.00,,2013-06-03 06:12:00,
2013-06-03 01:22:00,61.0,57.0,29.99,NNW,327,0.0,2.0,88,0.00,,,0.00,,2013-06-03 06:22:00,
2013-06-03 01:32:00,61.0,57.0,29.99,NNW,327,0.0,0.0,88,0.00,,,0.00,,2013-06-03 06:32:00,
2013-06-03 01:42:00,61.0,57.0,29.99,NNW,327,0.0,0.0,88,0.00,,,0.00,,2013-06-03 06:42:00,
2013-06-03 01:52:00,60.0,57.0,30.00,NNW,327,0.0,0.0,89,0.00,,,0.00,,2013-06-03 06:52:00,
2013-06-03 02:02:00,59.0,56.0,29.99,NNW,327,0.0,0.0,91,0.00,,,0.00,,2013-06-03 07:02:00,
2013-06-03 02:12:00,59.0,56.0,29.99,NNW,327,0.0,0.0,91,0.00,,,0.00,,2013-06-03 07:12:00,
2013-06-03 02:22:00,59.0,56.0,29.99,NNW,327,0.0,0.0,91,0.00,,,0.00,,2013-06-03 07:22:00,
2013-06-03 02:32:00,58.0,56.0,29.99,NNW,327,0.0,0.0,92,0.00,,,0.00,,2013-06-03 07:32:00,
2013-06-03 02:42:00,58.0,56.0,29.99,NNW,327,0.0,0.0,92,0.00,,,0.00,,2013-06-03 07:42:00,
2013-06-03 02:52:00,58.0,56.0,29.99,NNW,327,0.0,0.0,92,0.00,,,0.00,,2013-06-03 07:52:00,
2013-06-03 03:02:00,58.0,56.0,30.00,NNW,327,0.0,0.0,94,0.00,,,0.00,,2013-06-03 08:02:00,
2013-06-03 03:12:00,58.0,56.0,30.00,NNW,327,0.0,0.0,94,0.00,,,0.00,,2013-06-03 08:12:00,
2013-06-03 03:22:00,57.0,55.0,30.00,NNW,327,0.0,0.0,93,0.00,,,0.00,,2013-06-03 08:22:00,
2013-06-03 03:32:00,57.0,55.0,30.01,NNW,327,0.0,0.0,94,0.00,,,0.00,,2013-06-03 08:32:00,
2013-06-03 03:42:00,57.0,55.0,30.01,NNW,327,0.0,0.0,94,0.00,,,0.00,,2013-06-03 08:42:00,
2013-06-03 03:52:00,57.0,56.0,30.01,NNW,327,0.0,0.0,95,0.00,,,0.00,,2013-06-03 08:52:00,
2013-06-03 04:02:00,57.0,56.0,30.01,NNW,327,0.0,0.0,95,0.00,,,0.00,,2013-06-03 09:02:00,
2013-06-03 04:12:00,57.0,56.0,30.01,NNW,327,0.0,0.0,95,0.00,,,0.00,,2013-06-03 09:12:00,
2013-06-03 04:22:00,57.0,56.0,30.02,NNW,327,0.0,0.0,96,0.00,,,0.00,,2013-06-03 09:22:00,
2013-06-03 04:33:00,57.0,56.0,30.02,NNW,327,0.0,0.0,96,0.00,,,0.00,,2013-06-03 09:33:00,
2013-06-03 04:42:00,57.0,56.0,30.02,NNW,327,0.0,0.0,96,0.00,,,0.00,,2013-06-03 09:42:00,
2013-06-03 04:52:00,57.0,56.0,30.03,NNW,327,0.0,0.0,96,0.00,,,0.00,,2013-06-03 09:52:00,
2013-06-03 05:03:00,57.0,56.0,30.03,NNW,327,0.0,0.0,96,0.00,,,0.00,,2013-06-03 10:03:00,
2013-06-03 05:12:00,57.0,56.0,30.03,NNW,327,0.0,0.0,96,0.00,,,0.00,,2013-06-03 10:12:00,
2013-06-03 05:22:00,57.0,56.0,30.03,NNW,327,0.0,0.0,96,0.00,,,0.00,,2013-06-03 10:22:00,
2013-06-03 05:33:00,57.0,56.0,30.04,NNW,327,0.0,0.0,96,0.00,,,0.00,,2013-06-03 10:33:00,
2013-06-03 05:42:00,57.0,56.0,30.04,NNW,327,0.0,0.0,96,0.00,,,0.00,,2013-06-03 10:42:00,
2013-06-03 05:52:00,58.0,57.0,30.05,NNW,327,0.0,0.0,96,0.00,,,0.00,,2013-06-03 10:52:00,
2013-06-03 06:02:00,58.0,57.0,30.04,NNW,327,0.0,0.0,96,0.00,,,0.00,,2013-06-03 11:02:00,
2013-06-03 06:12:00,58.0,57.0,30.04,NNW,327,0.0,0.0,96,0.00,,,0.00,,2013-06-03 11:12:00,
2013-06-03 06:22:00,58.0,57.0,30.05,NNW,329,0.0,0.0,96,0.00,,,0.00,,2013-06-03 11:22:00,
2013-06-03 06:32:00,57.0,56.0,30.06,NNW,337,0.0,0.0,96,0.00,,,0.00,,2013-06-03 11:32:00,
2013-06-03 06:42:00,57.0,56.0,30.06,NNW,337,0.0,0.0,96,0.00,,,0.00,,2013-06-03 11:42:00,
2013-06-03 06:52:00,57.0,56.0,30.06,NNW,336,0.0,1.0,96,0.00,,,0.00,,2013-06-03 11:52:00,
2013-06-03 07:02:00,58.0,57.0,30.06,NNW,336,0.0,0.0,96,0.00,,,0.00,,2013-06-03 12:02:00,
2013-06-03 07:12:00,58.0,57.0,30.06,NNW,336,0.0,0.0,96,0.00,,,0.00,,2013-06-03 12:12:00,
2013-06-03 07:22:00,58.0,57.0,30.06,NNW,336,0.0,0.0,96,0.00,,,0.00,,2013-06-03 12:22:00,
2013-06-03 07:32:00,58.0,57.0,30.06,NNW,336,0.0,0.0,96,0.00,,,0.00,,2013-06-03 12:32:00,
2013-06-03 07:42:00,58.0,57.0,30.06,NNW,336,0.0,0.0,96,0.00,,,0.00,,2013-06-03 12:42:00,
2013-06-03 07:52:00,58.0,57.0,30.06,NNW,336,0.0,0.0,96,0.00,,,0.00,,2013-06-03 12:52:00,
2013-06-03 08:02:00,58.0,57.0,30.06,NNW,336,0.0,0.0,96,0.00,,,0.00,,2013-06-03 13:02:00,
2013-06-03 08:12:00,58.0,57.0,30.06,NNW,336,0.0,0.0,96,0.00,,,0.00,,2013-06-03 13:12:00,
2013-06-03 08:22:00,59.0,58.0,30.05,NNW,339,0.0,0.0,95,0.00,,,0.00,,2013-06-03 13:22:00,
2013-06-03 08:32:00,59.0,57.0,30.04,NNW,339,0.0,0.0,94,0.00,,,0.00,,2013-06-03 13:32:00,
2013-06-03 08:42:00,59.0,57.0,30.04,NNW,339,0.0,0.0,94,0.00,,,0.00,,2013-06-03 13:42:00,
2013-06-03 08:53:00,60.0,58.0,30.04,NNW,339,0.0,2.0,93,0.00,,,0.00,,2013-06-03 13:53:00,
2013-06-03 09:02:00,61.0,58.0,30.04,NNW,339,0.0,1.0,91,0.00,,,0.00,,2013-06-03 14:02:00,
2013-06-03 09:12:00,61.0,58.0,30.04,NNW,339,0.0,1.0,91,0.00,,,0.00,,2013-06-03 14:12:00,
2013-06-03 09:22:00,62.0,59.0,30.03,NNW,339,0.0,1.0,90,0.00,,,0.00,,2013-06-03 14:22:00,
2013-06-03 09:32:00,64.0,60.0,30.03,WSW,237,0.0,2.0,86,0.00,,,0.00,,2013-06-03 14:32:00,
2013-06-03 09:42:00,64.0,60.0,30.03,WSW,237,0.0,2.0,86,0.00,,,0.00,,2013-06-03 14:42:00,
2013-06-03 09:52:00,64.0,59.0,30.04,SW,215,0.0,1.0,85,0.00,,,0.00,,2013-06-03 14:52:00,
2013-06-03 10:02:00,65.0,60.0,30.04,SW,219,0.0,2.0,84,0.00,,,0.00,,2013-06-03 15:02:00,
2013-06-03 10:12:00,65.0,60.0,30.04,SW,219,0.0,2.0,84,0.00,,,0.00,,2013-06-03 15:12:00,
2013-06-03 10:22:00,66.0,60.0,30.03,SW,219,0.0,2.0,80,0.00,,,0.00,,2013-06-03 15:22:00,
2013-06-03 10:33:00,67.0,60.0,30.03,SW,219,0.0,2.0,78,0.00,,,0.00,,2013-06-03 15:33:00,
2013-06-03 10:43:00,67.0,60.0,30.03,SW,219,0.0,2.0,78,0.00,,,0.00,,2013-06-03 15:43:00,
2013-06-03 10:53:00,68.0,61.0,30.03,SW,221,0.0,2.0,78,0.00,,,0.00,,2013-06-03 15:53:00,
2013-06-03 11:03:00,68.0,59.0,30.03,SSW,201,0.0,1.0,73,0.00,,,0.00,,2013-06-03 16:03:00,
2013-06-03 11:13:00,68.0,59.0,30.03,SSW,201,0.0,1.0,73,0.00,,,0.00,,2013-06-03 16:13:00,
2013-06-03 11:23:00,69.0,60.0,30.03,SSW,196,0.0,3.0,72,0.00,,,0.00,,2013-06-03 16:23:00,
2013-06-03 11:33:00,70.0,59.0,30.03,North,350,0.0,3.0,69,0.00,,,0.00,,2013-06-03 16:33:00,
2013-06-03 11:42:00,71.0,59.0,30.02,SW,235,0.0,2.0,67,0.00,,,0.00,,2013-06-03 16:42:00,
2013-06-03 11:53:00,71.0,59.0,30.02,SW,235,0.0,2.0,67,0.00,,,0.00,,2013-06-03 16:53:00,
2013-06-03 12:02:00,71.0,58.0,30.01,NW,321,1.0,4.0,63,0.00,,,0.00,,2013-06-03 17:02:00,
2013-06-03 12:12:00,71.0,58.0,30.01,NW,321,1.0,4.0,63,0.00,,,0.00,,2013-06-03 17:12:00,
2013-06-03 12:22:00,72.0,59.0,30.01,NW,321,0.0,1.0,63,0.00,,,0.00,,2013-06-03 17:22:00,
2013-06-03 12:33:00,72.0,59.0,30.02,NW,321,0.0,1.0,64,0.00,,,0.00,,2013-06-03 17:33:00,
2013-06-03 12:42:00,72.0,59.0,30.02,NW,321,0.0,1.0,64,0.00,,,0.00,,2013-06-03 17:42:00,
2013-06-03 12:52:00,74.0,60.0,30.01,NW,311,0.0,2.0,61,0.00,,,0.00,,2013-06-03 17:52:00,
2013-06-03 13:02:00,75.0,63.0,30.01,South,184,0.0,3.0,67,0.00,,,0.00,,2013-06-03 18:02:00,
2013-06-03 13:12:00,75.0,63.0,30.01,South,184,0.0,3.0,67,0.00,,,0.00,,2013-06-03 18:12:00,
2013-06-03 13:22:00,76.0,58.0,30.00,South,188,0.0,2.0,54,0.00,,,0.00,,2013-06-03 18:22:00,
2013-06-03 13:32:00,76.0,60.0,29.99,South,188,0.0,2.0,58,0.00,,,0.00,,2013-06-03 18:32:00,
2013-06-03 13:42:00,76.0,60.0,29.99,South,188,0.0,2.0,58,0.00,,,0.00,,2013-06-03 18:42:00,
2013-06-03 13:52:00,76.0,59.0,29.99,South,190,0.0,3.0,55,0.00,,,0.00,,2013-06-03 18:52:00,
2013-06-03 14:03:00,76.0,59.0,29.98,NW,310,1.0,3.0,56,0.00,,,0.00,,2013-06-03 19:03:00,
2013-06-03 14:12:00,76.0,59.0,29.98,NW,310,1.0,3.0,56,0.00,,,0.00,,2013-06-03 19:12:00,
2013-06-03 14:22:00,77.0,60.0,29.98,NW,310,0.0,2.0,55,0.00,,,0.00,,2013-06-03 19:22:00,
2013-06-03 14:32:00,78.0,59.0,29.98,WSW,254,0.0,3.0,53,0.00,,,0.00,,2013-06-03 19:32:00,
2013-06-03 14:42:00,78.0,59.0,29.98,WSW,254,0.0,3.0,53,0.00,,,0.00,,2013-06-03 19:42:00,
2013-06-03 14:53:00,79.0,61.0,29.97,North,355,0.0,4.0,55,0.00,,,0.00,,2013-06-03 19:53:00,
2013-06-03 15:02:00,78.0,59.0,29.96,NNW,333,1.0,4.0,53,0.00,,,0.00,,2013-06-03 20:02:00,
2013-06-03 15:12:00,78.0,59.0,29.96,NNW,333,1.0,4.0,53,0.00,,,0.00,,2013-06-03 20:12:00,
2013-06-03 15:22:00,79.0,61.0,29.96,SW,232,0.0,3.0,55,0.00,,,0.00,,2013-06-03 20:22:00,
2013-06-03 15:32:00,79.0,61.0,29.96,WNW,288,0.0,2.0,55,0.00,,,0.00,,2013-06-03 20:32:00,
2013-06-03 15:42:00,79.0,61.0,29.96,WNW,288,0.0,2.0,55,0.00,,,0.00,,2013-06-03 20:42:00,
2013-06-03 15:52:00,80.0,61.0,29.95,SSW,192,0.0,3.0,52,0.00,,,0.00,,2013-06-03 20:52:00,
2013-06-03 16:02:00,79.0,59.0,29.95,SSW,193,0.0,2.0,51,0.00,,,0.00,,2013-06-03 21:02:00,
2013-06-03 16:12:00,79.0,59.0,29.95,SSW,193,0.0,2.0,51,0.00,,,0.00,,2013-06-03 21:12:00,
2013-06-03 16:22:00,80.0,62.0,29.94,SSW,193,0.0,2.0,54,0.00,,,0.00,,2013-06-03 21:22:00,
2013-06-03 16:33:00,79.0,59.0,29.94,NNW,334,0.0,3.0,50,0.00,,,0.00,,2013-06-03 21:33:00,
2013-06-03 16:43:00,79.0,59.0,29.94,NNW,334,0.0,3.0,50,0.00,,,0.00,,2013-06-03 21:43:00,
2013-06-03 16:53:00,79.0,61.0,29.93,NNW,334,0.0,2.0,55,0.00,,,0.00,,2013-06-03 21:53:00,
2013-06-03 17:03:00,80.0,60.0,29.93,West,281,0.0,2.0,51,0.00,,,0.00,,2013-06-03 22:03:00,
2013-06-03 17:12:00,80.0,60.0,29.93,West,281,0.0,2.0,51,0.00,,,0.00,,2013-06-03 22:12:00,
2013-06-03 17:22:00,80.0,60.0,29.93,SW,229,0.0,1.0,50,0.00,,,0.00,,2013-06-03 22:22:00,
2013-06-03 17:32:00,79.0,58.0,29.93,SSW,210,0.0,1.0,49,0.00,,,0.00,,2013-06-03 22:32:00,
2013-06-03 17:42:00,79.0,58.0,29.93,SSW,210,0.0,1.0,49,0.00,,,0.00,,2013-06-03 22:42:00,
2013-06-03 17:53:00,79.0,60.0,29.92,WNW,282,0.0,2.0,52,0.00,,,0.00,,2013-06-03 22:53:00,
2013-06-03 18:02:00,79.0,60.0,29.92,WSW,249,0.0,2.0,53,0.00,,,0.00,,2013-06-03 23:02:00,
2013-06-03 18:12:00,79.0,60.0,29.92,WSW,249,0.0,2.0,53,0.00,,,0.00,,2013-06-03 23:12:00,
2013-06-03 18:22:00,78.0,60.0,29.91,WSW,249,0.0,1.0,54,0.00,,,0.00,,2013-06-03 23:22:00,
2013-06-03 18:32:00,78.0,61.0,29.91,WSW,249,0.0,0.0,55,0.00,,,0.00,,2013-06-03 23:32:00,
2013-06-03 18:42:00,78.0,61.0,29.91,WSW,249,0.0,0.0,55,0.00,,,0.00,,2013-06-03 23:42:00,
2013-06-03 18:52:00,78.0,62.0,29.91,WSW,249,0.0,2.0,58,0.00,,,0.00,,2013-06-03 23:52:00,
2013-06-03 19:02:00,78.0,62.0,29.92,WNW,292,0.0,2.0,57,0.00,,,0.00,,2013-06-04 00:02:00,
2013-06-03 19:12:00,78.0,62.0,29.92,WNW,292,0.0,2.0,57,0.00,,,0.00,,2013-06-04 00:12:00,
2013-06-03 19:22:00,78.0,62.0,29.92,WNW,292,0.0,1.0,57,0.00,,,0.00,,2013-06-04 00:22:00,
2013-06-03 19:32:00,78.0,62.0,29.92,WNW,292,0.0,1.0,57,0.00,,,0.00,,2013-06-04 00:32:00,
2013-06-03 19:42:00,78.0,62.0,29.92,WNW,292,0.0,1.0,57,0.00,,,0.00,,2013-06-04 00:42:00,
2013-06-03 19:52:00,78.0,62.0,29.92,WNW,292,0.0,1.0,58,0.00,,,0.00,,2013-06-04 00:52:00,
2013-06-03 20:02:00,78.0,62.0,29.92,WNW,292,0.0,1.0,58,0.00,,,0.00,,2013-06-04 01:02:00,
2013-06-03 20:12:00,78.0,62.0,29.92,WNW,292,0.0,1.0,58,0.00,,,0.00,,2013-06-04 01:12:00,
2013-06-03 20:22:00,76.0,62.0,29.93,NW,321,0.0,1.0,61,0.00,,,0.00,,2013-06-04 01:22:00,
2013-06-03 20:32:00,75.0,61.0,29.93,NW,306,0.0,0.0,62,0.00,,,0.00,,2013-06-04 01:32:00,
2013-06-03 20:42:00,75.0,61.0,29.93,NW,306,0.0,0.0,62,0.00,,,0.00,,2013-06-04 01:42:00,
2013-06-03 20:53:00,74.0,61.0,29.93,NW,306,0.0,0.0,64,0.00,,,0.00,,2013-06-04 01:53:00,
2013-06-03 21:02:00,72.0,60.0,29.93,NW,306,0.0,0.0,67,0.00,,,0.00,,2013-06-04 02:02:00,
2013-06-03 21:12:00,72.0,60.0,29.93,NW,306,0.0,0.0,67,0.00,,,0.00,,2013-06-04 02:12:00,
2013-06-03 21:22:00,71.0,61.0,29.93,NW,306,0.0,0.0,70,0.00,,,0.00,,2013-06-04 02:22:00,
2013-06-03 21:32:00,69.0,60.0,29.94,NW,306,0.0,0.0,73,0.00,,,0.00,,2013-06-04 02:32:00,
2013-06-03 21:42:00,69.0,60.0,29.94,NW,306,0.0,0.0,73,0.00,,,0.00,,2013-06-04 02:42:00,
2013-06-03 21:52:00,68.0,61.0,29.94,NW,306,0.0,0.0,78,0.00,,,0.00,,2013-06-04 02:52:00,
2013-06-03 22:02:00,67.0,61.0,29.95,NW,306,0.0,0.0,81,0.00,,,0.00,,2013-06-04 03:02:00,
2013-06-03 22:12:00,67.0,61.0,29.95,NW,306,0.0,0.0,81,0.00,,,0.00,,2013-06-04 03:12:00,
2013-06-03 22:22:00,66.0,60.0,29.95,NW,306,0.0,0.0,82,0.00,,,0.00,,2013-06-04 03:22:00,
2013-06-03 22:32:00,65.0,60.0,29.95,NW,306,0.0,0.0,83,0.00,,,0.00,,2013-06-04 03:32:00,
2013-06-03 22:43:00,65.0,60.0,29.95,NW,306,0.0,0.0,83,0.00,,,0.00,,2013-06-04 03:43:00,
2013-06-03 22:53:00,64.0,60.0,29.96,NW,306,0.0,0.0,86,0.00,,,0.00,,2013-06-04 03:53:00,
2013-06-03 23:03:00,63.0,59.0,29.96,NW,305,0.0,0.0,87,0.00,,,0.00,,2013-06-04 04:03:00,
2013-06-03 23:13:00,63.0,59.0,29.96,NW,305,0.0,0.0,87,0.00,,,0.00,,2013-06-04 04:13:00,
2013-06-03 23:23:00,63.0,59.0,29.96,NW,306,0.0,0.0,88,0.00,,,0.00,,2013-06-04 04:23:00,
2013-06-03 23:33:00,62.0,59.0,29.96,NW,306,0.0,0.0,90,0.00,,,0.00,,2013-06-04 04:33:00,
2013-06-03 23:42:00,62.0,59.0,29.96,NW,306,0.0,0.0,90,0.00,,,0.00,,2013-06-04 04:42:00,
2013-06-03 23:53:00,61.0,58.0,29.97,NW,306,0.0,0.0,90,0.00,,,0.00,,2013-06-04 04:53:00,